Theta_e
299 292 289 293 295 297 296 295 295 300 304 302 300 300 303 307 305 304 306 312 312 310 314 317 324 325 325 324 323 325 326 327 326 324 324 322 320 322 323 321 322 322 321 321
296 292 297 300 299 298 297 294 294 298 302 301 302 303 304 306 305 304 305 307 310 310 313 315 320 323 324 324 324 326 326 327 326 324 324 323 324 321 324 322 321 321 320 319
293 297 303 301 299 297 296 294 294 295 300 300 298 300 302 305 305 308 308 309 310 311 313 313 319 322 323 323 325 327 327 327 326 326 327 324 322 321 319 320 321 320 321 320
298 301 301 300 299 299 293 299 299 298 295 289 296 287 297 300 303 305 305 307 307 311 312 313 318 320 322 324 325 328 329 328 327 328 323 319 316 315 319 320 322 319 320 319
297 299 298 297 299 301 297 301 298 298 294 290 293 287 292 298 299 302 304 304 306 308 312 313 318 321 324 325 324 328 331 329 326 330 324 320 319 322 321 320 318 317 319 320
299 304 302 301 303 302 303 298 296 294 291 285 291 289 290 293 299 302 306 307 307 306 308 314 318 321 324 326 325 327 331 329 326 328 328 323 322 321 318 317 318 318 318 322
297 299 303 304 298 300 297 290 283 283 283 284 293 291 293 298 303 304 305 307 308 308 307 311 314 319 322 324 325 327 329 328 327 327 326 327 323 322 318 319 318 317 316 315
291 289 298 303 299 295 294 292 285 280 281 286 294 289 295 302 305 307 307 307 309 308 305 307 314 318 320 323 325 327 327 328 329 328 324 324 325 323 321 321 320 319 316 316
295 293 302 303 303 301 295 292 294 289 289 286 289 294 300 304 304 305 306 307 305 307 308 309 310 314 317 320 324 326 326 328 327 327 326 324 324 322 321 320 320 318 317 320
297 291 302 305 306 304 299 301 291 289 281 281 288 290 292 300 302 303 304 304 306 308 308 308 310 312 314 319 324 326 327 327 327 326 326 325 324 323 322 321 319 318 319 318
297 294 296 301 298 296 297 295 295 293 292 286 282 288 298 302 304 304 304 305 306 306 307 308 309 313 314 319 323 325 326 326 325 325 325 323 323 323 322 321 320 319 319 318
291 291 288 293 300 302 300 298 296 287 286 289 289 289 302 305 303 307 307 309 307 306 307 308 311 312 313 319 323 324 325 325 325 325 324 322 322 322 321 320 319 319 318 318
291 285 281 285 292 297 296 298 296 295 295 289 283 288 303 305 305 307 306 309 308 306 306 309 310 311 313 315 320 322 323 323 323 324 324 322 321 320 320 319 319 318 318 317
293 286 283 279 284 288 288 292 294 294 287 289 291 292 298 302 304 305 306 309 309 309 310 309 308 310 312 316 316 318 318 318 319 322 323 322 321 321 319 319 319 319 318 316
288 282 285 285 287 288 288 288 290 289 291 290 293 294 298 301 302 304 306 310 309 309 310 311 307 310 312 312 316 317 317 317 318 321 320 320 320 319 319 319 317 316 315 314
287 281 283 280 285 286 284 287 289 289 290 291 295 293 299 305 305 303 303 307 309 310 310 311 312 311 312 314 314 318 317 317 319 317 319 320 321 319 317 315 314 313 312 311
282 281 279 275 282 282 278 284 288 289 291 291 287 294 299 298 304 303 302 304 303 308 310 311 310 310 313 314 318 314 317 318 317 316 317 318 317 315 314 314 312 309 308 307
282 280 280 276 278 271 282 290 290 288 290 292 292 294 295 297 301 304 304 302 304 306 311 309 309 311 316 318 317 315 316 317 317 315 315 316 314 312 311 308 306 305 305 304
286 282 275 274 275 279 283 286 286 285 285 291 290 293 294 297 298 298 303 304 303 303 306 310 314 314 314 315 318 315 316 316 315 314 313 313 311 308 306 305 304 303 301 301
288 287 280 276 272 268 281 288 291 289 279 290 291 292 293 295 289 295 303 304 300 300 305 307 309 309 308 311 313 314 313 312 311 311 310 308 307 306 305 304 302 301 300 300
280 279 277 275 270 279 287 290 293 279 280 293 294 294 294 293 298 302 302 303 305 305 305 306 307 306 306 310 314 313 311 310 310 309 308 306 306 304 303 302 301 301 301 300
279 278 274 275 269 270 291 290 283 287 291 294 295 294 294 296 298 300 302 303 303 303 304 306 306 306 308 314 313 310 309 307 307 306 306 304 302 303 303 301 300 301 300 298
278 282 278 281 278 288 291 290 293 293 293 293 295 294 296 295 296 297 298 298 300 302 302 304 305 305 310 312 312 309 307 307 305 305 303 302 302 302 302 300 299 299 298 297
285 288 283 283 286 289 291 292 294 294 293 294 295 296 296 295 296 296 297 299 300 301 301 301 304 306 307 309 309 306 306 306 304 301 301 301 301 301 300 300 299 297 295 295
285 287 284 284 286 288 290 293 294 294 295 297 297 297 297 296 297 296 297 298 300 300 301 302 305 306 307 308 307 306 305 304 301 300 300 299 300 297 297 297 296 296 295 294
288 285 282 281 287 287 288 293 295 294 294 296 296 295 297 299 295 296 296 298 300 300 300 303 305 305 308 310 307 304 303 302 299 298 298 297 296 295 295 295 295 296 295 294
Wind_Speed
8 4 8 11 12 12 8 12 11 11 15 13 11 9 16 16 7 8 10 15 14 13 12 16 18 18 17 13 11 13 11 9 7 3 4 4 4 3 3 4 7 6 5 4
7 12 11 14 16 17 16 14 15 11 9 14 18 25 11 16 10 12 10 9 14 10 15 16 19 17 19 18 14 11 11 9 8 5 3 4 4 2 4 4 5 6 5 3
11 12 16 19 17 17 15 16 11 14 17 8 6 20 20 17 8 19 15 16 13 16 20 18 20 20 19 19 17 15 11 10 9 7 4 4 5 4 3 2 3 4 6 5
14 13 18 18 20 15 13 10 13 16 6 7 5 7 6 8 8 5 8 15 14 18 16 20 21 20 22 20 18 17 15 10 7 8 5 7 5 5 4 4 4 5 6 6
18 15 17 17 15 10 9 8 7 6 6 4 15 1 9 8 8 13 12 10 14 16 19 23 23 24 22 20 19 18 18 13 8 7 7 6 4 3 3 3 7 5 4 5
16 17 17 16 16 12 7 5 8 6 3 6 15 7 9 6 12 10 18 17 14 14 13 20 22 24 20 19 18 18 20 19 15 9 8 9 9 5 4 4 5 3 2 2
12 18 19 16 13 11 4 3 3 5 3 10 8 9 14 8 10 10 13 21 19 18 14 19 23 21 20 22 22 19 19 17 15 13 10 9 8 7 7 5 4 3 2 1
10 12 16 20 15 9 7 9 8 8 4 9 6 7 17 14 20 18 4 10 20 18 11 15 24 24 26 25 23 21 19 17 16 14 10 8 8 5 4 5 4 3 3 2
6 21 16 17 17 13 9 11 9 5 5 3 5 9 17 22 12 22 7 11 10 11 11 10 10 15 17 20 22 22 22 19 17 15 11 9 8 8 6 7 4 4 3 2
12 8 8 14 10 14 7 10 3 1 8 10 8 9 10 14 13 9 9 10 9 10 10 9 8 8 10 20 19 21 21 20 17 14 12 10 9 8 7 6 6 5 4 3
9 5 7 8 4 3 3 13 6 6 5 7 3 7 1 4 4 6 7 9 10 10 9 8 7 8 8 15 17 18 18 17 15 13 11 9 8 8 7 6 6 6 4 5
16 5 5 10 21 15 12 4 8 4 8 5 8 12 8 4 1 16 9 8 8 8 9 9 9 9 8 14 16 18 16 15 15 13 10 9 8 8 8 7 7 7 6 6
13 7 7 11 7 8 4 4 7 4 8 10 4 8 2 6 11 9 10 20 5 7 8 9 9 8 8 9 16 16 15 15 13 12 12 10 9 8 9 8 8 7 7 7
10 5 6 7 15 15 16 18 9 4 4 4 9 11 17 9 9 10 14 9 14 16 18 13 4 9 8 10 9 12 11 11 11 12 12 12 12 12 10 8 7 7 7 7
4 5 11 17 20 20 20 21 13 10 5 6 13 14 15 17 7 14 10 8 10 13 14 13 9 15 13 8 12 13 12 11 11 14 13 14 11 8 8 7 7 7 7 6
4 7 12 19 19 18 23 20 15 12 12 14 8 17 1 2 17 21 16 10 8 11 11 11 10 12 12 17 7 13 13 12 11 11 14 9 10 9 8 7 7 6 6 6
10 9 11 18 16 18 14 14 12 12 8 11 10 14 5 6 5 3 11 9 7 3 6 6 3 3 9 13 19 5 13 10 9 9 8 9 9 8 7 7 5 3 3 3
14 12 8 14 9 16 12 10 17 17 14 14 16 13 10 6 7 10 8 10 3 4 5 7 5 2 7 6 13 10 6 7 10 9 8 8 7 7 6 6 4 2 2 3
11 11 5 9 13 15 19 14 13 11 18 9 13 17 19 12 6 2 8 9 5 4 5 4 6 5 4 5 8 10 7 8 7 7 8 7 7 8 6 5 4 3 3 3
8 9 6 5 6 8 5 15 20 17 21 15 9 7 12 13 5 2 11 5 6 2 2 4 5 3 3 4 5 6 5 8 7 7 9 8 8 7 5 5 3 1 2 4
6 5 9 7 4 7 14 15 9 8 8 4 5 5 7 7 2 1 7 8 7 6 6 6 7 6 6 5 2 7 7 7 7 8 8 8 8 7 5 3 2 3 5 6
3 6 3 4 3 11 6 9 6 4 5 4 6 5 6 7 6 4 4 4 8 8 6 7 7 6 8 7 6 7 8 7 8 8 8 8 6 4 3 3 4 5 5 6
9 11 5 5 7 14 18 12 6 8 8 7 7 7 6 8 7 5 1 1 3 6 5 4 3 5 4 3 7 8 4 7 7 8 7 6 4 3 3 3 4 4 5 5
11 12 7 9 11 8 11 13 15 7 13 10 10 8 7 9 7 7 6 4 2 3 4 2 4 5 4 3 7 7 7 7 8 7 6 4 4 4 5 3 3 3 4 5
9 7 14 15 21 13 18 17 17 17 10 7 7 8 10 8 10 8 2 3 0 3 6 4 6 5 4 4 7 7 8 8 7 5 3 2 3 3 4 3 2 3 3 4
9 17 11 15 17 11 18 16 17 15 11 10 10 10 12 13 10 8 5 3 4 6 3 3 4 4 2 3 4 8 8 7 7 5 4 4 4 4 3 4 5 8 10 9
Wind_Direction
237 170 220 237 246 247 248 235 254 225 231 223 264 244 217 236 160 241 169 173 175 173 170 149 144 137 138 141 129 138 141 156 143 141 130 125 150 150 117 132 129 115 108 86
234 231 223 233 243 239 246 254 265 284 268 216 224 232 239 207 216 183 207 187 177 168 156 155 148 148 154 154 148 137 154 156 155 149 153 148 153 161 153 145 137 137 138 155
229 233 232 233 247 249 239 230 248 248 274 267 224 241 241 206 210 221 197 195 189 178 167 165 158 159 156 159 158 151 161 159 162 159 122 94 80 66 88 159 135 167 171 174
246 252 253 250 239 233 253 257 245 239 247 243 153 262 245 188 196 225 199 203 191 191 172 168 165 164 164 168 162 152 153 158 167 152 145 145 151 157 199 177 161 174 188 194
253 253 254 261 262 245 240 275 270 267 247 297 288 91 257 178 208 228 247 195 199 192 176 176 171 169 171 162 167 161 157 158 169 157 162 154 155 158 158 121 151 186 202 199
266 277 266 271 279 253 242 250 294 292 209 250 246 180 253 229 207 218 229 237 201 193 178 175 171 168 166 167 165 166 161 171 170 165 163 168 173 168 162 157 162 175 226 225
270 264 275 275 287 291 182 149 310 319 291 223 234 251 240 258 237 208 220 233 215 187 170 164 167 169 166 170 176 172 165 168 171 172 162 163 181 169 168 160 160 195 215 201
246 270 241 260 253 230 237 173 176 215 216 256 275 257 258 237 261 266 57 253 200 177 167 154 167 171 179 178 172 169 166 163 171 174 162 156 156 158 167 170 193 210 179 160
307 265 262 254 252 242 244 246 209 179 267 300 248 278 264 253 250 243 145 95 93 96 95 91 111 175 176 175 171 166 168 169 174 170 163 168 166 168 177 197 186 172 187 204
338 303 300 301 308 269 186 234 231 280 197 245 259 267 265 312 204 152 126 122 107 104 94 87 91 99 168 175 165 166 167 168 170 163 170 172 172 170 173 165 171 187 200 217
16 341 323 327 248 302 266 271 210 146 175 191 225 263 122 341 57 359 143 128 122 114 116 110 80 75 88 158 157 159 161 159 164 163 171 165 165 170 175 182 196 199 204 218
8 280 272 266 294 303 304 284 350 208 256 205 190 250 277 346 144 231 166 100 128 140 139 115 104 83 71 131 142 150 151 156 165 173 168 167 166 169 175 185 192 196 208 225
354 331 329 331 334 327 301 49 29 124 15 296 170 258 161 356 6 59 57 125 130 109 115 120 111 113 111 114 130 144 154 165 169 168 168 168 172 171 180 185 190 198 212 228
6 313 327 303 316 322 312 318 345 123 137 292 269 316 312 40 10 6 27 29 65 38 41 19 82 140 132 135 133 141 157 161 167 169 171 175 183 188 186 181 189 203 210 222
79 287 317 324 323 318 305 305 315 301 250 165 275 292 299 347 26 1 38 13 46 55 49 30 31 35 15 161 166 167 172 177 171 177 173 186 184 168 162 176 186 200 217 228
282 258 301 300 310 308 306 304 282 283 293 297 231 270 338 320 7 351 354 358 41 56 35 30 15 21 24 12 270 179 180 188 183 170 183 167 163 156 165 175 194 208 232 245
270 267 274 275 291 306 302 281 301 296 290 303 281 276 284 317 117 246 315 333 6 64 88 352 31 24 41 10 327 280 189 184 170 162 153 147 146 150 165 174 184 221 255 270
263 256 260 267 274 267 258 267 282 286 283 284 292 297 313 276 175 192 190 253 281 286 88 160 205 123 84 36 312 322 319 163 149 135 128 125 131 137 131 110 94 45 47 360
234 250 249 248 255 272 272 268 281 290 285 304 317 316 313 327 9 228 93 75 67 27 42 43 84 89 89 128 271 336 24 73 91 102 107 107 95 85 75 63 53 49 15 340
299 218 245 258 253 254 252 249 249 265 273 280 292 326 319 304 306 345 354 14 313 36 52 55 43 60 41 308 341 320 111 96 98 92 89 90 85 82 70 71 37 354 308 276
296 303 217 233 238 261 252 269 302 259 254 345 11 333 338 352 120 179 341 349 14 20 36 39 31 358 331 338 29 106 109 104 99 94 87 79 74 81 67 41 5 322 295 280
316 311 263 262 220 264 231 238 204 188 304 358 337 309 312 308 316 26 348 24 24 349 21 9 27 25 328 337 111 122 103 119 95 89 80 76 67 50 31 345 306 294 285 278
246 212 230 261 243 309 306 295 217 177 218 198 231 263 286 285 294 306 267 74 293 316 351 354 83 41 355 144 143 111 101 94 87 84 86 76 53 358 340 323 310 302 289 289
243 243 240 257 249 254 278 285 290 251 219 213 209 225 244 271 274 278 248 192 228 289 290 286 33 31 10 37 66 99 89 80 78 78 68 53 40 339 328 321 302 305 316 317
242 270 249 256 263 268 258 252 259 266 258 184 189 208 232 246 265 259 295 319 240 309 310 342 26 12 323 198 122 100 88 81 76 80 69 39 25 15 334 332 302 314 286 245
231 246 242 253 257 251 260 258 260 266 270 223 212 229 241 236 239 212 209 158 235 242 262 94 54 33 224 35 86 96 88 87 78 41 33 41 28 359 14 348 339 323 302 312